GW1109 Weather Reports


time (UTC)temp
F
wind
direction
speed
knots
gust
knots
rain 1hr
in
rain 24hr
in
rain mn
in
humidity
%
barometer
mb
20260507020105 64 262 4.3 13.9 0.00 0.39 0.39 100 1004.2
20260507014553 64 236 5.2 11.3 0.00 0.39 0.39 100 1004.3
20260507013054 64 181 4.3 14.8 0.00 0.39 0.39 100 1004.2
20260507011547 64 216 5.2 13.0 0.00 0.39 0.39 100 1004.2
20260507010050 64 167 6.1 13.0 0.00 0.39 0.39 100 1004.4
20260507004553 64 222 6.1 13.0 0.00 0.39 0.39 100 1004.5
20260507003049 64 216 5.2 14.8 0.00 0.39 0.39 100 1004.4
20260507001545 64 218 5.2 13.9 0.00 0.39 0.39 100 1004.3
20260507000050 64 212 4.3 14.8 0.00 0.39 0.39 100 1004.1
20260506234551 64 209 7.0 17.4 0.00 0.39 0.39 100 1004.3
20260506233101 64 214 5.2 19.1 0.00 0.39 0.39 100 1004.4
20260506231553 64 213 7.8 14.8 0.00 0.39 0.39 100 1004.3
20260506230049 64 188 7.0 14.8 0.00 0.39 0.39 100 1004.4
20260506224541 64 178 6.1 13.0 0.00 0.39 0.39 100 1004.5
20260506223045 64 174 6.1 14.8 0.00 0.39 0.39 100 1004.7
20260506221549 64 209 7.8 19.1 0.01 0.39 0.39 100 1004.7
20260506220049 65 207 7.8 16.5 0.01 0.39 0.39 100 1004.8
20260506214550 65 199 5.2 11.3 0.02 0.39 0.39 100 1005.0
20260506213057 65 169 5.2 14.8 0.03 0.38 0.38 100 1005.0
20260506211543 65 139 4.3 11.3 0.06 0.38 0.38 100 1005.1
20260506210048 65 105 3.5 8.7 0.08 0.38 0.38 100 1005.2
20260506204548 65 187 2.6 6.1 0.08 0.37 0.37 100 1005.6
20260506203047 65 163 2.6 7.0 0.07 0.35 0.35 100 1005.6
20260506201546 65 143 1.7 7.0 0.06 0.32 0.32 100 1005.5
20260506200052 65 182 0.9 6.1 0.09 0.30 0.30 100 1005.3
20260506194541 65 199 1.7 7.0 0.11 0.29 0.29 99 1005.7
20260506193046 64 205 2.6 8.7 0.14 0.28 0.28 98 1005.8
20260506191546 64 174 2.6 7.8 0.21 0.26 0.26 97 1006.3
20260506190047 64 215 2.6 7.8 0.21 0.21 0.21 95 1006.4
20260506184552 63 225 3.5 11.3 0.17 0.17 0.17 93 1006.2
20260506183054 63 250 5.2 13.0 0.14 0.14 0.14 89 1006.7
20260506181615 64 230 0.9 4.3 0.05 0.05 0.05 80 1006.5
20260506180048 66 221 3.5 7.0 0.00 0.00 0.00 67 1006.1
20260506174545 67 189 3.5 13.0 0.00 0.00 0.00 62 1005.8
20260506173058 68 202 5.2 13.0 0.00 0.00 0.00 61 1006.0
20260506171544 69 215 7.0 18.2 0.00 0.00 0.00 58 1006.1
20260506170049 69 237 4.3 13.0 0.00 0.00 0.00 59 1006.2
20260506164548 68 211 7.8 15.6 0.00 0.00 0.00 60 1006.6
20260506163047 68 215 6.1 13.0 0.00 0.00 0.00 61 1006.9
20260506161548 68 217 5.2 14.8 0.00 0.00 0.00 62 1007.2
20260506160052 67 217 7.0 13.0 0.00 0.00 0.00 63 1007.5
20260506154552 68 188 6.1 13.0 0.00 0.00 0.00 63 1007.9
20260506153104 66 240 6.1 17.4 0.00 0.00 0.00 67 1008.1
20260506151544 66 221 3.5 15.6 0.00 0.00 0.00 66 1007.7
20260506150059 66 229 7.0 13.0 0.00 0.00 0.00 66 1008.0
20260506144555 66 217 6.1 14.8 0.00 0.00 0.00 67 1007.8
20260506143045 65 226 7.8 14.8 0.00 0.00 0.00 68 1007.9
20260506141543 65 206 6.1 10.4 0.00 0.00 0.00 69 1007.7
20260506140041 65 210 3.5 8.7 0.00 0.00 0.00 71 1007.9
20260506134540 64 227 5.2 9.6 0.00 0.00 0.00 72 1008.1
20260506133042 64 228 4.3 9.6 0.00 0.00 0.00 72 1008.2
20260506131553 63 229 4.3 11.3 0.00 0.00 0.00 72 1008.1
20260506130047 63 215 4.3 9.6 0.00 0.00 0.00 73 1008.2
20260506124546 62 271 4.3 12.2 0.00 0.00 0.00 74 1008.1
20260506123041 62 213 4.3 13.0 0.00 0.00 0.00 73 1008.3
20260506121542 62 209 4.3 11.3 0.00 0.00 0.00 74 1008.1
20260506120048 61 228 5.2 10.4 0.00 0.00 0.00 75 1008.6
20260506114547 61 200 5.2 11.3 0.00 0.00 0.00 75 1008.7
20260506113046 60 222 4.3 9.6 0.00 0.00 0.00 76 1008.9
20260506111545 60 227 4.3 9.6 0.00 0.00 0.00 76 1009.0
20260506110042 60 216 5.2 11.3 0.00 0.00 0.00 76 1008.8
20260506104541 59 247 4.3 7.8 0.00 0.00 0.00 76 1008.9
20260506103053 59 232 4.3 8.7 0.00 0.00 0.00 76 1009.0
20260506101547 59 221 4.3 8.7 0.00 0.00 0.00 76 1008.6
20260506100045 59 197 3.5 9.6 0.00 0.00 0.00 74 1008.7
20260506094545 59 224 4.3 7.8 0.00 0.00 0.00 74 1008.7
20260506093041 58 189 3.5 6.1 0.00 0.00 0.00 73 1008.6
20260506091550 58 225 3.5 7.8 0.00 0.00 0.00 73 1008.6
20260506090056 59 218 3.5 8.7 0.00 0.00 0.00 71 1008.4
20260506084551 59 229 4.3 9.6 0.00 0.00 0.00 70 1008.6
20260506083047 59 219 2.6 9.6 0.00 0.00 0.00 70 1008.3
20260506081546 59 207 3.5 7.0 0.00 0.00 0.00 69 1008.2
20260506073048 60 269 1.7 5.2 0.00 0.00 0.00 67 1008.4
20260506071549 60 215 3.5 6.1 0.00 0.00 0.00 66 1008.2
20260506061544 61 176 2.6 7.8 0.00 0.00 0.00 64 1007.9
20260506044552 63 153 5.2 9.6 0.00 0.00 0.00 62 1008.2
20260506043047 63 192 5.2 10.4 0.00 0.00 0.00 61 1008.2
20260506041547 63 198 3.5 8.7 0.00 0.00 0.00 62 1008.1
20260506040047 64 222 3.5 7.8 0.00 0.00 0.00 62 1008.1
20260506034558 63 212 3.5 7.0 0.00 0.00 0.00 65 1008.1
20260506033049 63 202 0.9 3.5 0.00 0.00 0.00 67 1008.3
20260506031547 63 178 0.9 5.2 0.00 0.00 0.00 67 1008.2
20260506030046 64 221 1.7 4.3 0.00 0.00 0.00 66 1008.2
20260506024605 64 173 2.6 5.2 0.00 0.00 0.00 65 1008.0
20260506023044 64 207 0.9 4.3 0.00 0.00 0.00 64 1008.1
20260506021544 65 225 0.9 4.3 0.00 0.00 0.00 63 1008.5